7 * 24
多渠道服务支持
STERKH 2是独联体(CIS)于2009年9月17日08:00发射的人造卫星,作为STERKH系列卫星的第二颗,承担空间监测与对地观测相关任务,依托独联体航天发射体系进入预定轨道,服务于区域空间态势感知与相关科研应用,是独联体在航天领域持续推进卫星组网建设的重要组成部分,对提升区域空间观测能力具备积极价值。
俄罗斯(独联体)
(CIS)
| 数据来源 | 国际轨道数据 | AOE轨道数据 |
| 星历时间 | 2026-09-11T02:27:21+0800 18小时前 查看轨道信息 | 2026-09-10T12:00:00+0800 1天前 查看轨道信息 |
| 半长轴 | 7190.019km | 7190.02km |
| 偏心率 | 0.0003944 | 0.0003962 |
| 轨道倾角 | 98.725° | 98.725° |
| 近地点辐角 | 45.833° | 46.340° |
| 升交点赤经 | 214.268° | 213.670° |
| 平近点角 | 314.317° | 107.805° |
| 近地点 | 809.046km | 809.034km |
| 远地点 | 814.718km | 814.732km |
| 周期 | 101.124分钟 | 101.124分钟 |
| 每日圈数 | 14.239927 | 14.239923 |
| 事件ID | 空间交会对象 | 最接近时刻(TCA) | 交会距离 | 交会风险概率(CRP) | 交会风险指数(CRI) | 操作 |
|---|---|---|---|---|---|---|
| CDM_260913-202603-586606-155421 |
STERKH 2
(35866)
QIANFAN-21
(61554) | 2026-09-13T 20:26:52+0000 |
1.227 km
极远距离 | 1.333989E-5 中风险 | 0.58 |